全球星 M045星 (GLOBALSTAR M045)

导读 | 星芒AI

GLOBALSTAR M045 是 Globalstar 卫星通信公司运营的一颗低轨移动通信卫星,属于其第二代卫星星座(Globalstar 2)的一部分。该卫星主要用于提供全球范围内的语音和数据通信服务,特别是在偏远地区和海上等传统蜂窝网络无法覆盖的区域。M045 卫星采用先进的通信技术,支持多种终端设备,为用户提供可靠的卫星通信解决方案。

基本信息
目录编号:
25676
目录名称:
GLOBALSTAR M045
国际标识:
1999-019A
轨道中心:
EARTH
卫星名称:
全球星 M045星
卫星全名:
全球星 M045星 (GLOBALSTAR M045)
卫星状态:
在轨 (已飞行9694 天)
发射日期:
1999-04-15 UTC
国别 :
(GLOB)
星等 :
--
轨道信息
数据来源 国际轨道数据
星历时间: 2025-10-29T14:01:41+0800
11小时前
查看轨道信息
半长轴: 7940.046km
偏心率: 0.0000489
轨道倾角: 51.997°
近地点辐角 75.429°
升交点赤经 283.157°
平近点角 297.737°
近地点: 1561.522km
远地点: 1562.3km
周期: 117.353分钟
每日圈数: 12.27067
详细信息
固有亮度:
5
最大亮度:
7.9
平衡模式:
三轴稳定
覆盖范围:
全球
运营商:
全球星公司
运营商所在国:
美国
使用方式:
暂无
卫星简介
全球星星座由48颗卫星加8颗备份星组成。这些卫星分布在8个倾角为52度的圆形轨道平面上,每个轨道平面6颗卫星,另有1 颗备用星。轨道高度约为1414km,传输时延和处理时延小于300ms,整个系统的覆盖区为南北纬70度以内的地区。该卫星仍在工作。
2D轨道图
3D轨道图
轨道高度分析图
轨道倾角分析图
轨道综合分析图
查看轨道综合分析图